VIASAT-1

Last updated on Wed Sep 17 2025 00:02:47 GMT+0000 (Coordinated Universal Time)

1 37843U 11059A 25259.56085191 -.00000043 00000+0 00000+0 0 9995 2 37843 0.0154 169.7301 0002336 4.8378 267.9642 1.00270017 44572
UTC large
Height (km)
Speed (km/s)
/
Latitude / Longitude
Inclination (degrees)
Orbital Period (minutes)
Azimuth
Elevation
Range (km)
Doppler Factor

Next 0 passes for location: London (51.5072 / 0.1276)

Sorry there are no passes over London.